Location: Unspecified
(0.0000°N, 0.0000°E)
Time: 19:08:03
(UTC+00:00)

Vanguard 3 - Visible Passes

Search period start: 18 April 2019 00:00
Search period end: 28 April 2019 00:00
Orbit: 509 x 3262 km, 33.3° (Epoch: 17 April)

Date Brightness Start Highest point End Pass type
(mag) Time Alt. Az. Time Alt. Az. Time Alt. Az.
18 Apr 10.6 01:32:45 38° ESE 01:32:45 38° ESE 01:45:19 10° E visible
18 Apr 9.9 03:37:20 50° SW 03:45:14 87° NW 04:02:17 10° NE visible
19 Apr 11.4 00:23:14 14° E 00:23:14 14° E 00:25:35 10° E visible
19 Apr 10.0 02:27:49 69° SE 02:27:49 69° SE 02:46:29 10° ENE visible
19 Apr 10.1 04:32:25 26° WSW 04:45:11 57° NW 05:00:33 10° NE visible
20 Apr 10.7 01:18:13 36° E 01:18:13 36° E 01:29:03 10° ENE visible
20 Apr 9.9 03:22:48 61° WSW 03:28:00 80° NW 03:45:52 10° NE visible
20 Apr 10.5 05:28:36 10° W 05:45:13 34° NW 05:57:58 10° NNE visible
21 Apr 11.5 00:08:34 12° E 00:08:34 12° E 00:09:29 10° E visible
21 Apr 10.0 02:13:08 70° E 02:13:08 70° E 02:29:58 10° ENE visible
21 Apr 10.2 04:17:42 31° W 04:28:08 51° NW 04:44:07 10° NE visible
22 Apr 10.8 01:03:23 33° E 01:03:23 33° E 01:12:34 10° ENE visible
22 Apr 9.8 03:07:56 67° WNW 03:10:46 72° NW 03:29:16 10° NE visible
22 Apr 10.7 05:12:31 10° W 05:28:34 31° NNW 05:41:37 10° NNE visible
23 Apr 10.1 01:58:07 64° ENE 01:58:07 64° ENE 02:13:17 10° NE visible
23 Apr 10.3 04:02:40 33° W 04:11:08 46° NW 04:27:33 10° NE visible
24 Apr 10.9 00:48:12 29° ENE 00:48:12 29° ENE 00:55:53 10° ENE visible
24 Apr 9.9 02:52:46 65° NW 02:53:35 65° NW 03:12:31 10° NE visible
24 Apr 10.8 04:57:18 11° W 05:12:01 28° NNW 05:25:12 10° NNE visible
25 Apr 10.2 01:42:46 55° NE 01:42:46 55° NE 01:56:25 10° NE visible
25 Apr 10.4 03:47:19 34° WNW 03:54:13 41° NNW 04:10:51 10° NNE visible
26 Apr 11.0 00:32:43 26° ENE 00:32:43 26° ENE 00:39:01 10° ENE visible
26 Apr 10.0 02:37:15 58° NNW 02:37:15 58° NNW 02:55:37 10° NE visible
26 Apr 10.9 04:41:47 12° WNW 04:55:34 26° NNW 05:08:45 10° NNE visible
27 Apr 10.4 01:27:07 47° NE 01:27:07 47° NE 01:39:23 10° NE visible
27 Apr 10.5 03:31:39 32° WNW 03:37:25 37° NNW 03:54:04 10° NNE visible
